This demonstration page uses our WeatherBlox Daily Observations layout. Learn more.

Left ArrowRight Arrow

39.29038, -76.61219

Hourly Observations for February 2, 2021

Temp ( °F °C ) Dew Point ( °F °C ) Humidity (%) Winds ( mph kmh ) Pressure ( in mb ) Visibility ( mi km ) Precip ( " mm )
12:40 am 00:40 Cloudy with Light Snow 33 0.6 28 -2.2 82 82 NNW 10 17 29.62 1003 10 16 0.00 0.00
12:54 am 00:54 Cloudy with Light Snow 33 0.6 28 -2.2 82 82 NW 10 17 29.61 1003 9 14 0.00 0.00
1:54 am 01:54 Cloudy with Light Snow 32 undefined 28 -2.2 85 85 NW 8 13 29.60 1003 9 14 0.00 0.00
2:54 am 02:54 Cloudy with Light Snow 32 undefined 27 -2.8 82 82 NNW 12 19 29.60 1002 7 11 0.00 0.00
3:54 am 03:54 Cloudy with Light Snow 32 undefined 27 -2.8 82 82 NW 12 19 29.58 1002 5 8 0.00 0.00
4:54 am 04:54 Cloudy with Light Snow 32 undefined 27 -2.8 82 82 NW 12 19 29.58 1002 9 14 0.00 0.00
5:54 am 05:54 Cloudy with Light Snow 32 undefined 27 -2.8 82 82 NNW 10 17 29.58 1002 9 14 0.00 0.00
6:54 am 06:54 Cloudy with Light Snow 31 -0.6 27 -2.8 85 85 NNW 10 17 29.58 1002 4 6 0.00 0.00
7:54 am 07:54 Cloudy with Light Snow 32 undefined 27 -2.8 82 82 NW 13 20 29.58 1002 3 5 0.00 0.00
8:26 am 08:26 Cloudy with Light Snow 32 undefined 27 -2.8 82 82 NW 12 19 29.59 1002 3 4 0.00 0.00
8:54 am 08:54 Cloudy with Light Snow 32 undefined 27 -2.8 82 82 NW 10 17 29.58 1002 3 4 0.00 0.00
8:56 am 08:56 Cloudy with Light Snow 32 undefined 27 -2.8 82 82 NW 10 17 29.59 1002 3 5 0.00 0.00
9:54 am 09:54 Cloudy with Light Snow 33 0.6 27 -2.8 78 78 NW 12 19 29.57 1002 5 8 0.00 0.00
10:54 am 10:54 Cloudy with Light Snow 34 1.1 28 -2.2 79 79 NW 13 20 29.56 1001 6 10 0.00 0.00
11:54 am 11:54 Mostly Cloudy 34 1.1 27 -2.8 76 76 NW 15 24 29.53 1000 7 11 0.00 0.00
12:54 pm 12:54 Mostly Cloudy 36 2.2 27 -2.8 70 70 NW 12 19 29.51 999 10 16 N/A
1:00 pm 13:00 Cloudy 36 2.2 27 -2.8 70 70 NW 10 17 29.52 1000 10 16 N/A
1:54 pm 13:54 Cloudy 36 2.2 28 -2.2 73 73 WNW 10 17 29.50 999 10 16 N/A
2:54 pm 14:54 Cloudy 35 1.7 27 -2.8 72 72 NW 10 17 29.51 999 10 16 N/A
3:54 pm 15:54 Cloudy with Light Snow 34 1.1 28 -2.2 79 79 NW 10 17 29.53 1000 7 11 0.00 0.00
4:36 pm 16:36 Cloudy 34 1.1 26 -3.3 73 73 NW 14 22 29.55 1001 7 11 0.00 0.00
4:54 pm 16:54 Mostly Cloudy 34 1.1 26 -3.3 73 73 NW 20 31 29.54 1000 7 11 0.00 0.00
5:54 pm 17:54 Mostly Cloudy 33 0.6 24 -4.4 70 70 NW 18 30 29.56 1001 10 16 N/A
6:54 pm 18:54 Cloudy 33 0.6 22 -5.6 64 64 NW 18 30 29.57 1001 10 16 N/A
7:54 pm 19:54 Cloudy 32 undefined 22 -5.6 66 66 NW 16 26 29.57 1001 10 16 N/A
8:54 pm 20:54 Cloudy 32 undefined 22 -5.6 66 66 NW 14 22 29.57 1001 10 16 N/A
9:54 pm 21:54 Cloudy 31 -0.6 20 -6.7 64 64 WNW 16 26 29.57 1002 10 16 N/A
10:54 pm 22:54 Cloudy 30 -1.1 22 -5.6 72 72 WNW 13 20 29.57 1001 10 16 N/A
11:54 pm 23:54 Cloudy 30 -1.1 21 -6.1 69 69 WNW 15 24 29.57 1001 10 16 N/A

Powered by AerisWeather